Location: Battery Park City
(40.7115°N, 74.0163°W)
Time: 12:46:54
(UTC+00:00)

Shenzhou-11 Module - Pass Details

Date: 08 December 2019
Orbit: 303 x 315 km, 42.8° (Epoch: 18 January)

Event Time Altitude Azimuth Distance (km) Brightness Sun altitude
Rises 22:49:54 0° 279° (W) 2,064 7.0 -15.0°
Reaches altitude 10° 22:51:55 10° 285° (WNW) 1,228 5.5 -15.3°
Maximum altitude 22:54:38 52° 4° (N) 404 2.0 -15.8°
Enters shadow 22:54:55 48° 31° (NNE) 423 1.9 -15.9°
